Time,TemperatureF,DewpointF,PressureIn,WindDirection,WindDirectionDegrees,WindSpeedMPH,WindSpeedGustMPH,Humidity,HourlyPrecipIn,Conditions,Clouds,dailyrainin,SoftwareType,DateUTC
2013-02-23 00:01:00,17.9,-0.4,22.31,SSW,212,10.0,21.0,44,0.00,,,0.00,Wunderground v.1.15,2013-02-23 07:01:00,
2013-02-23 00:03:00,17.9,-0.4,22.31,West,259,9.0,9.0,44,0.00,,,0.00,Wunderground v.1.15,2013-02-23 07:03:00,
2013-02-23 00:07:00,17.8,-0.5,22.31,SW,222,10.0,21.0,44,0.00,,,0.00,Wunderground v.1.15,2013-02-23 07:07:00,
2013-02-23 00:09:00,17.9,-0.4,22.31,SW,235,10.0,21.0,44,0.00,,,0.00,Wunderground v.1.15,2013-02-23 07:09:00,
2013-02-23 00:11:00,17.9,-0.4,22.31,WSW,243,10.0,21.0,44,0.00,,,0.00,Wunderground v.1.15,2013-02-23 07:11:00,
2013-02-23 00:13:00,17.9,-0.4,22.31,SW,222,10.0,10.0,44,0.00,,,0.00,Wunderground v.1.15,2013-02-23 07:13:00,
2013-02-23 00:19:00,17.9,-0.4,22.31,West,263,9.0,21.0,44,0.00,,,0.00,Wunderground v.1.15,2013-02-23 07:19:00,
2013-02-23 00:25:00,17.8,-0.5,22.30,SW,229,7.0,21.0,44,0.00,,,0.00,Wunderground v.1.15,2013-02-23 07:25:00,
2013-02-23 00:27:00,17.8,-0.5,22.30,WNW,287,6.0,21.0,44,0.00,,,0.00,Wunderground v.1.15,2013-02-23 07:27:00,
2013-02-23 00:29:00,17.8,-0.5,22.30,NNW,330,6.0,21.0,44,0.00,,,0.00,Wunderground v.1.15,2013-02-23 07:29:00,
2013-02-23 00:33:00,17.9,-0.4,22.31,SW,219,7.0,21.0,44,0.00,,,0.00,Wunderground v.1.15,2013-02-23 07:33:00,
2013-02-23 00:35:00,17.9,-0.4,22.30,SW,221,6.0,21.0,44,0.00,,,0.00,Wunderground v.1.15,2013-02-23 07:35:00,
2013-02-23 00:39:00,17.9,0.1,22.30,SW,224,7.0,21.0,45,0.00,,,0.00,Wunderground v.1.15,2013-02-23 07:39:00,
2013-02-23 00:41:00,17.9,0.6,22.30,South,190,8.0,21.0,46,0.00,,,0.00,Wunderground v.1.15,2013-02-23 07:41:00,
2013-02-23 00:45:00,18.1,-0.2,22.30,SE,141,7.0,21.0,44,0.00,,,0.00,Wunderground v.1.15,2013-02-23 07:45:00,
2013-02-23 00:47:00,18.1,-0.2,22.31,SSE,160,6.0,21.0,44,0.00,,,0.00,Wunderground v.1.15,2013-02-23 07:47:00,
2013-02-23 00:51:00,18.4,-0.4,22.30,NNW,343,7.0,21.0,43,0.00,,,0.00,Wunderground v.1.15,2013-02-23 07:51:00,
2013-02-23 00:55:00,18.4,-0.4,22.30,SW,217,7.0,21.0,43,0.00,,,0.00,Wunderground v.1.15,2013-02-23 07:55:00,
2013-02-23 00:57:00,18.3,0.0,22.30,West,264,8.0,21.0,44,0.00,,,0.00,Wunderground v.1.15,2013-02-23 07:57:00,
2013-02-23 00:59:00,18.2,0.4,22.30,WSW,242,7.0,21.0,45,0.00,,,0.00,Wunderground v.1.15,2013-02-23 07:59:00,
2013-02-23 01:05:00,18.3,-0.5,22.30,WSW,249,8.0,8.0,43,0.00,,,0.00,Wunderground v.1.15,2013-02-23 08:05:00,
2013-02-23 01:07:00,18.3,0.0,22.30,SSE,159,8.0,21.0,44,0.00,,,0.00,Wunderground v.1.15,2013-02-23 08:07:00,
2013-02-23 01:13:00,18.2,-0.1,22.29,NW,323,7.0,21.0,44,0.00,,,0.00,Wunderground v.1.15,2013-02-23 08:13:00,
2013-02-23 01:17:00,18.2,0.4,22.29,WSW,238,6.0,21.0,45,0.00,,,0.00,Wunderground v.1.15,2013-02-23 08:17:00,
2013-02-23 01:21:00,18.2,0.4,22.29,WSW,257,7.0,21.0,45,0.00,,,0.00,Wunderground v.1.15,2013-02-23 08:21:00,
2013-02-23 01:25:00,18.3,0.5,22.29,WSW,240,8.0,8.0,45,0.00,,,0.00,Wunderground v.1.15,2013-02-23 08:25:00,
2013-02-23 01:27:00,18.4,0.6,22.29,SW,223,8.0,21.0,45,0.00,,,0.00,Wunderground v.1.15,2013-02-23 08:27:00,
2013-02-23 01:29:00,18.4,0.6,22.30,SW,231,7.0,21.0,45,0.00,,,0.00,Wunderground v.1.15,2013-02-23 08:29:00,
2013-02-23 01:31:00,18.4,0.6,22.29,West,261,6.0,21.0,45,0.00,,,0.00,Wunderground v.1.15,2013-02-23 08:31:00,
2013-02-23 01:33:00,18.5,0.2,22.29,SW,224,6.0,21.0,44,0.00,,,0.00,Wunderground v.1.15,2013-02-23 08:33:00,
2013-02-23 01:37:00,18.6,0.3,22.29,WSW,238,6.0,21.0,44,0.00,,,0.00,Wunderground v.1.15,2013-02-23 08:37:00,
2013-02-23 01:39:00,18.7,0.8,22.29,West,264,6.0,21.0,45,0.00,,,0.00,Wunderground v.1.15,2013-02-23 08:39:00,
2013-02-23 01:45:00,18.7,0.8,22.28,WSW,246,7.0,7.0,45,0.00,,,0.00,Wunderground v.1.15,2013-02-23 08:45:00,
2013-02-23 01:47:00,18.6,0.7,22.29,SW,231,6.0,9.0,45,0.00,,,0.00,Wunderground v.1.15,2013-02-23 08:47:00,
2013-02-23 01:53:00,18.5,1.1,22.28,SSW,208,7.0,21.0,46,0.00,,,0.00,Wunderground v.1.15,2013-02-23 08:53:00,
2013-02-23 01:55:00,18.5,1.1,22.28,WSW,238,8.0,21.0,46,0.00,,,0.00,Wunderground v.1.15,2013-02-23 08:55:00,
2013-02-23 01:59:00,18.5,0.7,22.28,NW,305,9.0,21.0,45,0.00,,,0.00,Wunderground v.1.15,2013-02-23 08:59:00,
2013-02-23 02:01:00,18.6,0.7,22.28,NW,313,9.0,21.0,45,0.00,,,0.00,Wunderground v.1.15,2013-02-23 09:01:00,
2013-02-23 02:07:00,18.5,1.1,22.27,SW,232,8.0,21.0,46,0.00,,,0.00,Wunderground v.1.15,2013-02-23 09:07:00,
2013-02-23 02:13:00,18.6,0.7,22.28,WNW,294,10.0,10.0,45,0.00,,,0.00,Wunderground v.1.15,2013-02-23 09:13:00,
2013-02-23 02:15:00,18.7,0.8,22.28,SW,231,10.0,21.0,45,0.00,,,0.00,Wunderground v.1.15,2013-02-23 09:15:00,
2013-02-23 02:17:00,18.8,0.9,22.28,ESE,105,11.0,21.0,45,0.00,,,0.00,Wunderground v.1.15,2013-02-23 09:17:00,
2013-02-23 02:19:00,18.8,0.9,22.28,SSW,209,11.0,21.0,45,0.00,,,0.00,Wunderground v.1.15,2013-02-23 09:19:00,
2013-02-23 02:21:00,18.8,1.4,22.27,WSW,253,10.0,21.0,46,0.00,,,0.00,Wunderground v.1.15,2013-02-23 09:21:00,
2013-02-23 02:23:00,18.8,1.4,22.27,West,266,10.0,10.0,46,0.00,,,0.00,Wunderground v.1.15,2013-02-23 09:23:00,
2013-02-23 02:29:00,18.7,1.3,22.27,West,259,10.0,21.0,46,0.00,,,0.00,Wunderground v.1.15,2013-02-23 09:29:00,
2013-02-23 02:31:00,18.7,1.8,22.27,SSW,204,10.0,21.0,47,0.00,,,0.00,Wunderground v.1.15,2013-02-23 09:31:00,
2013-02-23 02:35:00,18.7,1.8,22.27,WSW,250,12.0,21.0,47,0.00,,,0.00,Wunderground v.1.15,2013-02-23 09:35:00,
2013-02-23 02:37:00,18.6,1.7,22.27,NW,323,11.0,21.0,47,0.00,,,0.00,Wunderground v.1.15,2013-02-23 09:37:00,
2013-02-23 02:41:00,18.7,1.8,22.27,SW,222,11.0,21.0,47,0.00,,,0.00,Wunderground v.1.15,2013-02-23 09:41:00,
2013-02-23 02:43:00,18.6,1.7,22.27,SW,236,10.0,21.0,47,0.00,,,0.00,Wunderground v.1.15,2013-02-23 09:43:00,
2013-02-23 02:47:00,18.6,1.2,22.26,WSW,243,11.0,21.0,46,0.00,,,0.00,Wunderground v.1.15,2013-02-23 09:47:00,
2013-02-23 02:49:00,18.6,1.7,22.26,SSW,207,11.0,21.0,47,0.00,,,0.00,Wunderground v.1.15,2013-02-23 09:49:00,
2013-02-23 02:51:00,18.7,1.3,22.26,WNW,287,12.0,21.0,46,0.00,,,0.00,Wunderground v.1.15,2013-02-23 09:51:00,
2013-02-23 02:53:00,18.8,1.9,22.27,SW,217,12.0,22.0,47,0.00,,,0.00,Wunderground v.1.15,2013-02-23 09:53:00,
2013-02-23 02:55:00,18.8,1.9,22.26,SW,221,13.0,22.0,47,0.00,,,0.00,Wunderground v.1.15,2013-02-23 09:55:00,
2013-02-23 03:01:00,18.9,2.0,22.27,SW,236,14.0,22.0,47,0.00,,,0.00,Wunderground v.1.15,2013-02-23 10:01:00,
2013-02-23 03:05:00,18.8,1.9,22.27,WSW,253,12.0,21.0,47,0.00,,,0.00,Wunderground v.1.15,2013-02-23 10:05:00,
2013-02-23 03:07:00,18.8,1.4,22.26,SW,226,11.0,21.0,46,0.00,,,0.00,Wunderground v.1.15,2013-02-23 10:07:00,
2013-02-23 03:11:00,19.3,1.4,22.26,South,188,10.0,21.0,45,0.00,,,0.00,Wunderground v.1.15,2013-02-23 10:11:00,
2013-02-23 03:15:00,19.4,1.5,22.27,ENE,63,10.0,21.0,45,0.00,,,0.00,Wunderground v.1.15,2013-02-23 10:15:00,
2013-02-23 03:21:00,19.6,1.2,22.26,WSW,243,10.0,21.0,44,0.00,,,0.00,Wunderground v.1.15,2013-02-23 10:21:00,
2013-02-23 03:23:00,19.6,1.2,22.26,WSW,239,10.0,21.0,44,0.00,,,0.00,Wunderground v.1.15,2013-02-23 10:23:00,
2013-02-23 03:25:00,19.6,1.2,22.26,SW,233,9.0,21.0,44,0.00,,,0.00,Wunderground v.1.15,2013-02-23 10:25:00,
2013-02-23 03:27:00,19.7,0.8,22.26,NNW,339,9.0,21.0,43,0.00,,,0.00,Wunderground v.1.15,2013-02-23 10:27:00,
2013-02-23 03:31:00,19.9,1.0,22.26,SW,214,8.0,21.0,43,0.00,,,0.00,Wunderground v.1.15,2013-02-23 10:31:00,
2013-02-23 03:35:00,19.8,0.9,22.25,West,259,7.0,9.0,43,0.00,,,0.00,Wunderground v.1.15,2013-02-23 10:35:00,
2013-02-23 03:37:00,19.8,1.4,22.26,SW,225,7.0,21.0,44,0.00,,,0.00,Wunderground v.1.15,2013-02-23 10:37:00,
2013-02-23 03:43:00,19.8,0.9,22.25,WNW,293,7.0,21.0,43,0.00,,,0.00,Wunderground v.1.15,2013-02-23 10:43:00,
2013-02-23 03:49:00,20.0,1.1,22.25,WSW,249,8.0,21.0,43,0.00,,,0.00,Wunderground v.1.15,2013-02-23 10:49:00,
2013-02-23 03:55:00,20.4,1.4,22.25,WSW,249,9.0,21.0,43,0.00,,,0.00,Wunderground v.1.15,2013-02-23 10:55:00,
2013-02-23 03:59:00,20.6,1.6,22.24,SW,235,10.0,21.0,43,0.00,,,0.00,Wunderground v.1.15,2013-02-23 10:59:00,
2013-02-23 04:01:00,20.6,1.6,22.25,NW,323,11.0,21.0,43,0.00,,,0.00,Wunderground v.1.15,2013-02-23 11:01:00,
2013-02-23 04:03:00,20.7,1.7,22.25,SW,235,11.0,21.0,43,0.00,,,0.00,Wunderground v.1.15,2013-02-23 11:03:00,
2013-02-23 04:05:00,20.8,2.3,22.25,West,263,10.0,21.0,44,0.00,,,0.00,Wunderground v.1.15,2013-02-23 11:05:00,
2013-02-23 04:11:00,20.8,1.8,22.25,NW,323,8.0,21.0,43,0.00,,,0.00,Wunderground v.1.15,2013-02-23 11:11:00,
2013-02-23 04:13:00,20.8,1.8,22.25,WNW,290,8.0,8.0,43,0.00,,,0.00,Wunderground v.1.15,2013-02-23 11:13:00,
2013-02-23 04:17:00,20.9,1.9,22.26,WNW,295,8.0,21.0,43,0.00,,,0.00,Wunderground v.1.15,2013-02-23 11:17:00,
2013-02-23 04:23:00,21.0,2.0,22.26,WSW,256,8.0,8.0,43,0.00,,,0.00,Wunderground v.1.15,2013-02-23 11:23:00,
2013-02-23 04:29:00,20.9,2.4,22.26,West,272,7.0,21.0,44,0.00,,,0.00,Wunderground v.1.15,2013-02-23 11:29:00,
2013-02-23 04:35:00,20.8,2.3,22.27,WSW,245,6.0,21.0,44,0.00,,,0.00,Wunderground v.1.15,2013-02-23 11:35:00,
2013-02-23 04:37:00,20.8,2.3,22.27,NW,317,7.0,21.0,44,0.00,,,0.00,Wunderground v.1.15,2013-02-23 11:37:00,
2013-02-23 04:43:00,20.6,2.6,22.27,WNW,299,6.0,6.0,45,0.00,,,0.00,Wunderground v.1.15,2013-02-23 11:43:00,
2013-02-23 04:47:00,20.7,2.7,22.26,SW,224,5.0,21.0,45,0.00,,,0.00,Wunderground v.1.15,2013-02-23 11:47:00,
2013-02-23 04:49:00,20.7,2.7,22.27,WSW,253,6.0,21.0,45,0.00,,,0.00,Wunderground v.1.15,2013-02-23 11:49:00,
2013-02-23 04:53:00,20.7,3.2,22.27,WSW,248,7.0,7.0,46,0.00,,,0.00,Wunderground v.1.15,2013-02-23 11:53:00,
2013-02-23 04:55:00,20.6,3.1,22.27,WNW,302,8.0,8.0,46,0.00,,,0.00,Wunderground v.1.15,2013-02-23 11:55:00,
2013-02-23 05:01:00,20.4,2.9,22.26,SW,223,5.0,21.0,46,0.00,,,0.00,Wunderground v.1.15,2013-02-23 12:01:00,
2013-02-23 05:03:00,20.4,2.9,22.26,SW,231,5.0,5.0,46,0.00,,,0.00,Wunderground v.1.15,2013-02-23 12:03:00,
2013-02-23 05:07:00,20.4,2.9,22.26,SSE,150,4.0,21.0,46,0.00,,,0.00,Wunderground v.1.15,2013-02-23 12:07:00,
2013-02-23 05:13:00,20.7,3.2,22.26,WSW,250,6.0,21.0,46,0.00,,,0.00,Wunderground v.1.15,2013-02-23 12:13:00,
2013-02-23 05:19:00,20.8,3.2,22.25,South,184,9.0,21.0,46,0.00,,,0.00,Wunderground v.1.15,2013-02-23 12:19:00,
2013-02-23 05:25:00,20.6,3.5,22.25,WSW,246,8.0,21.0,47,0.00,,,0.00,Wunderground v.1.15,2013-02-23 12:25:00,
2013-02-23 05:31:00,20.7,3.2,22.25,SW,231,8.0,21.0,46,0.00,,,0.00,Wunderground v.1.15,2013-02-23 12:31:00,
2013-02-23 05:33:00,20.7,3.2,22.25,NW,323,8.0,8.0,46,0.00,,,0.00,Wunderground v.1.15,2013-02-23 12:33:00,
2013-02-23 05:35:00,20.8,3.2,22.25,SW,222,9.0,9.0,46,0.00,,,0.00,Wunderground v.1.15,2013-02-23 12:35:00,
2013-02-23 05:39:00,20.7,3.6,22.25,SW,225,8.0,21.0,47,0.00,,,0.00,Wunderground v.1.15,2013-02-23 12:39:00,
2013-02-23 05:41:00,20.7,3.6,22.25,WSW,250,8.0,21.0,47,0.00,,,0.00,Wunderground v.1.15,2013-02-23 12:41:00,
2013-02-23 05:45:00,20.5,3.0,22.25,SSW,203,7.0,21.0,46,0.00,,,0.00,Wunderground v.1.15,2013-02-23 12:45:00,
2013-02-23 05:51:00,20.5,3.0,22.25,West,273,6.0,21.0,46,0.00,,,0.00,Wunderground v.1.15,2013-02-23 12:51:00,
2013-02-23 05:53:00,20.5,3.0,22.25,NW,319,6.0,6.0,46,0.00,,,0.00,Wunderground v.1.15,2013-02-23 12:53:00,
2013-02-23 05:57:00,20.6,3.5,22.25,NE,46,7.0,21.0,47,0.00,,,0.00,Wunderground v.1.15,2013-02-23 12:57:00,
2013-02-23 06:01:00,20.6,3.5,22.25,NW,326,7.0,21.0,47,0.00,,,0.00,Wunderground v.1.15,2013-02-23 13:01:00,
2013-02-23 06:03:00,20.6,3.5,22.25,NW,317,6.0,21.0,47,0.00,,,0.00,Wunderground v.1.15,2013-02-23 13:03:00,
2013-02-23 06:09:00,20.4,3.8,22.24,West,278,5.0,21.0,48,0.00,,,0.00,Wunderground v.1.15,2013-02-23 13:09:00,
2013-02-23 06:11:00,20.3,3.7,22.25,West,270,5.0,21.0,48,0.00,,,0.00,Wunderground v.1.15,2013-02-23 13:11:00,
2013-02-23 06:17:00,20.5,3.9,22.24,NW,304,6.0,21.0,48,0.00,,,0.00,Wunderground v.1.15,2013-02-23 13:17:00,
2013-02-23 06:19:00,20.5,3.9,22.24,WNW,291,6.0,21.0,48,0.00,,,0.00,Wunderground v.1.15,2013-02-23 13:19:00,
2013-02-23 06:23:00,20.5,3.9,22.24,SW,219,6.0,21.0,48,0.00,,,0.00,Wunderground v.1.15,2013-02-23 13:23:00,
2013-02-23 06:27:00,20.6,3.5,22.24,South,171,7.0,21.0,47,0.00,,,0.00,Wunderground v.1.15,2013-02-23 13:27:00,
2013-02-23 06:29:00,20.8,4.2,22.24,WNW,300,7.0,21.0,48,0.00,,,0.00,Wunderground v.1.15,2013-02-23 13:29:00,
2013-02-23 06:33:00,20.9,4.3,22.24,West,280,6.0,6.0,48,0.00,,,0.00,Wunderground v.1.15,2013-02-23 13:33:00,
2013-02-23 06:37:00,21.0,3.9,22.24,WSW,239,6.0,21.0,47,0.00,,,0.00,Wunderground v.1.15,2013-02-23 13:37:00,
2013-02-23 06:43:00,21.5,4.4,22.24,SW,229,7.0,21.0,47,0.00,,,0.00,Wunderground v.1.15,2013-02-23 13:43:00,
2013-02-23 06:47:00,21.9,4.7,22.25,SSW,193,7.0,21.0,47,0.00,,,0.00,Wunderground v.1.15,2013-02-23 13:47:00,
2013-02-23 06:49:00,21.9,4.3,22.25,NW,323,7.0,21.0,46,0.00,,,0.00,Wunderground v.1.15,2013-02-23 13:49:00,
2013-02-23 06:53:00,21.7,4.5,22.25,West,263,7.0,7.0,47,0.00,,,0.00,Wunderground v.1.15,2013-02-23 13:53:00,
2013-02-23 06:55:00,21.7,4.1,22.25,WSW,240,7.0,21.0,46,0.00,,,0.00,Wunderground v.1.15,2013-02-23 13:55:00,
2013-02-23 06:57:00,21.5,3.9,22.24,SW,214,7.0,21.0,46,0.00,,,0.00,Wunderground v.1.15,2013-02-23 13:57:00,
2013-02-23 07:03:00,21.6,4.9,22.25,West,260,9.0,9.0,48,0.00,,,0.00,Wunderground v.1.15,2013-02-23 14:03:00,
2013-02-23 07:05:00,21.6,4.4,22.24,SSW,201,9.0,21.0,47,0.00,,,0.00,Wunderground v.1.15,2013-02-23 14:05:00,
2013-02-23 07:09:00,21.5,4.4,22.25,WSW,242,9.0,21.0,47,0.00,,,0.00,Wunderground v.1.15,2013-02-23 14:09:00,
2013-02-23 07:11:00,21.4,4.3,22.25,WSW,240,9.0,21.0,47,0.00,,,0.00,Wunderground v.1.15,2013-02-23 14:11:00,
2013-02-23 07:17:00,21.1,4.0,22.25,NNW,333,8.0,21.0,47,0.00,,,0.00,Wunderground v.1.15,2013-02-23 14:17:00,
2013-02-23 07:19:00,21.1,4.4,22.25,West,259,8.0,21.0,48,0.00,,,0.00,Wunderground v.1.15,2013-02-23 14:19:00,
2013-02-23 07:25:00,21.3,5.1,22.25,WSW,242,9.0,14.0,49,0.00,,,0.00,Wunderground v.1.15,2013-02-23 14:25:00,
2013-02-23 07:27:00,21.4,4.7,22.25,South,186,9.0,21.0,48,0.00,,,0.00,Wunderground v.1.15,2013-02-23 14:27:00,
2013-02-23 07:31:00,21.6,4.9,22.26,NW,315,8.0,21.0,48,0.00,,,0.00,Wunderground v.1.15,2013-02-23 14:31:00,
2013-02-23 07:37:00,22.0,5.3,22.25,SSW,197,10.0,21.0,48,0.00,,,0.00,Wunderground v.1.15,2013-02-23 14:37:00,
2013-02-23 07:39:00,22.1,5.4,22.25,SSW,207,10.0,21.0,48,0.00,,,0.00,Wunderground v.1.15,2013-02-23 14:39:00,
2013-02-23 07:41:00,22.3,6.0,22.24,West,281,11.0,21.0,49,0.00,,,0.00,Wunderground v.1.15,2013-02-23 14:41:00,
2013-02-23 07:45:00,22.7,5.9,22.24,SSW,202,11.0,21.0,48,0.00,,,0.00,Wunderground v.1.15,2013-02-23 14:45:00,
2013-02-23 07:47:00,22.8,5.6,22.25,WSW,253,11.0,21.0,47,0.00,,,0.00,Wunderground v.1.15,2013-02-23 14:47:00,
2013-02-23 07:53:00,22.9,6.1,22.24,West,278,15.0,15.0,48,0.00,,,0.00,Wunderground v.1.15,2013-02-23 14:53:00,
2013-02-23 07:55:00,22.9,5.6,22.24,WSW,255,16.0,16.0,47,0.00,,,0.00,Wunderground v.1.15,2013-02-23 14:55:00,
2013-02-23 07:57:00,23.0,5.7,22.25,West,262,17.0,17.0,47,0.00,,,0.00,Wunderground v.1.15,2013-02-23 14:57:00,
2013-02-23 08:01:00,23.3,6.0,22.26,SSW,212,17.0,21.0,47,0.00,,,0.00,Wunderground v.1.15,2013-02-23 15:01:00,
2013-02-23 08:05:00,23.5,6.2,22.27,SW,226,15.0,21.0,47,0.00,,,0.00,Wunderground v.1.15,2013-02-23 15:05:00,
2013-02-23 08:09:00,23.8,6.0,22.27,West,260,12.0,21.0,46,0.00,,,0.00,Wunderground v.1.15,2013-02-23 15:09:00,
2013-02-23 08:15:00,24.3,6.5,22.26,SW,226,10.0,14.0,46,0.00,,,0.00,Wunderground v.1.15,2013-02-23 15:15:00,
2013-02-23 08:17:00,24.4,6.1,22.26,SW,231,9.0,21.0,45,0.00,,,0.00,Wunderground v.1.15,2013-02-23 15:17:00,
2013-02-23 08:21:00,24.5,6.2,22.26,SSW,212,6.0,21.0,45,0.00,,,0.00,Wunderground v.1.15,2013-02-23 15:21:00,
2013-02-23 08:25:00,24.2,5.9,22.25,NW,316,6.0,21.0,45,0.00,,,0.00,Wunderground v.1.15,2013-02-23 15:25:00,
2013-02-23 08:27:00,24.1,6.3,22.25,SSW,208,5.0,21.0,46,0.00,,,0.00,Wunderground v.1.15,2013-02-23 15:27:00,
2013-02-23 08:29:00,24.2,6.4,22.26,West,259,5.0,21.0,46,0.00,,,0.00,Wunderground v.1.15,2013-02-23 15:29:00,
2013-02-23 08:33:00,24.1,6.7,22.25,North,9,6.0,21.0,47,0.00,,,0.00,Wunderground v.1.15,2013-02-23 15:33:00,
2013-02-23 08:35:00,24.1,6.7,22.25,WSW,245,7.0,21.0,47,0.00,,,0.00,Wunderground v.1.15,2013-02-23 15:35:00,
2013-02-23 08:41:00,24.2,6.8,22.25,WSW,255,8.0,21.0,47,0.00,,,0.00,Wunderground v.1.15,2013-02-23 15:41:00,
2013-02-23 08:43:00,24.2,6.4,22.25,North,357,7.0,7.0,46,0.00,,,0.00,Wunderground v.1.15,2013-02-23 15:43:00,
2013-02-23 08:49:00,24.3,6.5,22.25,WNW,287,7.0,21.0,46,0.00,,,0.00,Wunderground v.1.15,2013-02-23 15:49:00,
2013-02-23 08:51:00,24.3,6.0,22.25,NW,316,7.0,21.0,45,0.00,,,0.00,Wunderground v.1.15,2013-02-23 15:51:00,
2013-02-23 08:57:00,24.1,5.8,22.25,WSW,252,7.0,13.0,45,0.00,,,0.00,Wunderground v.1.15,2013-02-23 15:57:00,
2013-02-23 08:59:00,24.1,5.8,22.25,WSW,242,8.0,21.0,45,0.00,,,0.00,Wunderground v.1.15,2013-02-23 15:59:00,
2013-02-23 09:01:00,24.2,6.4,22.25,NNW,331,8.0,21.0,46,0.00,,,0.00,Wunderground v.1.15,2013-02-23 16:01:00,
2013-02-23 09:07:00,24.5,6.6,22.25,SW,225,8.0,21.0,46,0.00,,,0.00,Wunderground v.1.15,2013-02-23 16:07:00,
2013-02-23 09:09:00,24.5,6.6,22.25,West,260,7.0,21.0,46,0.00,,,0.00,Wunderground v.1.15,2013-02-23 16:09:00,
2013-02-23 09:15:00,25.0,7.1,22.25,West,277,9.0,21.0,46,0.00,,,0.00,Wunderground v.1.15,2013-02-23 16:15:00,
2013-02-23 09:17:00,25.1,7.2,22.25,SSW,212,8.0,21.0,46,0.00,,,0.00,Wunderground v.1.15,2013-02-23 16:17:00,
2013-02-23 09:21:00,25.6,7.7,22.24,WSW,249,9.0,21.0,46,0.00,,,0.00,Wunderground v.1.15,2013-02-23 16:21:00,
2013-02-23 09:23:00,25.8,7.4,22.24,West,264,10.0,22.0,45,0.00,,,0.00,Wunderground v.1.15,2013-02-23 16:23:00,
2013-02-23 09:29:00,26.4,7.9,22.24,SW,231,13.0,22.0,45,0.00,,,0.00,Wunderground v.1.15,2013-02-23 16:29:00,
2013-02-23 09:31:00,26.5,7.5,22.24,WSW,239,13.0,22.0,44,0.00,,,0.00,Wunderground v.1.15,2013-02-23 16:31:00,
2013-02-23 09:33:00,26.7,8.2,22.24,SW,225,13.0,13.0,45,0.00,,,0.00,Wunderground v.1.15,2013-02-23 16:33:00,
2013-02-23 09:35:00,26.8,8.3,22.24,SW,233,13.0,19.0,45,0.00,,,0.00,Wunderground v.1.15,2013-02-23 16:35:00,
2013-02-23 09:41:00,27.0,8.5,22.24,WSW,242,12.0,21.0,45,0.00,,,0.00,Wunderground v.1.15,2013-02-23 16:41:00,
2013-02-23 09:43:00,27.2,8.1,22.24,SW,233,12.0,21.0,44,0.00,,,0.00,Wunderground v.1.15,2013-02-23 16:43:00,
2013-02-23 09:47:00,27.1,7.0,22.24,SW,225,13.0,21.0,42,0.00,,,0.00,Wunderground v.1.15,2013-02-23 16:47:00,
2013-02-23 09:49:00,27.1,7.5,22.24,WSW,246,12.0,21.0,43,0.00,,,0.00,Wunderground v.1.15,2013-02-23 16:49:00,
2013-02-23 09:53:00,27.0,6.9,22.24,WSW,240,13.0,21.0,42,0.00,,,0.00,Wunderground v.1.15,2013-02-23 16:53:00,
2013-02-23 09:55:00,26.9,6.8,22.24,West,271,14.0,21.0,42,0.00,,,0.00,Wunderground v.1.15,2013-02-23 16:55:00,
2013-02-23 10:01:00,26.6,7.1,22.24,SSW,207,13.0,22.0,43,0.00,,,0.00,Wunderground v.1.15,2013-02-23 17:01:00,
2013-02-23 10:07:00,26.4,6.9,22.24,SW,232,13.0,21.0,43,0.00,,,0.00,Wunderground v.1.15,2013-02-23 17:07:00,
2013-02-23 10:09:00,26.3,6.8,22.24,SW,222,13.0,21.0,43,0.00,,,0.00,Wunderground v.1.15,2013-02-23 17:09:00,
2013-02-23 10:13:00,26.6,7.6,22.24,WSW,250,14.0,14.0,44,0.00,,,0.00,Wunderground v.1.15,2013-02-23 17:13:00,
2013-02-23 10:17:00,26.9,7.4,22.24,WSW,238,16.0,21.0,43,0.00,,,0.00,Wunderground v.1.15,2013-02-23 17:17:00,
2013-02-23 10:23:00,27.1,7.5,22.25,WSW,248,15.0,21.0,43,0.00,,,0.00,Wunderground v.1.15,2013-02-23 17:23:00,
2013-02-23 10:25:00,27.3,8.2,22.24,SW,235,14.0,21.0,44,0.00,,,0.00,Wunderground v.1.15,2013-02-23 17:25:00,
2013-02-23 10:31:00,27.8,8.2,22.24,SW,217,12.0,21.0,43,0.00,,,0.00,Wunderground v.1.15,2013-02-23 17:31:00,
2013-02-23 10:37:00,28.2,8.5,22.24,SW,231,11.0,21.0,43,0.00,,,0.00,Wunderground v.1.15,2013-02-23 17:37:00,
2013-02-23 10:39:00,28.3,8.1,22.24,SSW,197,11.0,21.0,42,0.00,,,0.00,Wunderground v.1.15,2013-02-23 17:39:00,
2013-02-23 10:41:00,28.4,8.7,22.24,NNW,329,10.0,21.0,43,0.00,,,0.00,Wunderground v.1.15,2013-02-23 17:41:00,
2013-02-23 10:43:00,28.5,8.3,22.24,WSW,246,9.0,9.0,42,0.00,,,0.00,Wunderground v.1.15,2013-02-23 17:43:00,
2013-02-23 10:45:00,28.7,9.0,22.24,West,278,9.0,21.0,43,0.00,,,0.00,Wunderground v.1.15,2013-02-23 17:45:00,
2013-02-23 10:49:00,28.9,8.6,22.24,West,276,7.0,21.0,42,0.00,,,0.00,Wunderground v.1.15,2013-02-23 17:49:00,
2013-02-23 10:51:00,29.2,9.4,22.24,West,273,7.0,21.0,43,0.00,,,0.00,Wunderground v.1.15,2013-02-23 17:51:00,
2013-02-23 10:55:00,29.3,9.0,22.24,SSE,165,5.0,21.0,42,0.00,,,0.00,Wunderground v.1.15,2013-02-23 17:55:00,
2013-02-23 11:01:00,28.9,8.6,22.24,SW,236,5.0,21.0,42,0.00,,,0.00,Wunderground v.1.15,2013-02-23 18:01:00,
2013-02-23 11:07:00,29.0,9.3,22.24,WNW,284,5.0,21.0,43,0.00,,,0.00,Wunderground v.1.15,2013-02-23 18:07:00,
2013-02-23 11:09:00,29.3,9.5,22.24,NNW,345,5.0,21.0,43,0.00,,,0.00,Wunderground v.1.15,2013-02-23 18:09:00,
2013-02-23 11:13:00,29.8,9.5,22.24,NNW,332,4.0,21.0,42,0.00,,,0.00,Wunderground v.1.15,2013-02-23 18:13:00,
2013-02-23 11:15:00,29.9,9.0,22.24,WSW,248,4.0,21.0,41,0.00,,,0.00,Wunderground v.1.15,2013-02-23 18:15:00,
2013-02-23 11:21:00,29.7,8.8,22.24,West,266,7.0,21.0,41,0.00,,,0.00,Wunderground v.1.15,2013-02-23 18:21:00,
2013-02-23 11:23:00,29.6,8.7,22.24,West,262,8.0,21.0,41,0.00,,,0.00,Wunderground v.1.15,2013-02-23 18:23:00,
2013-02-23 11:25:00,29.6,9.3,22.24,SSW,205,8.0,21.0,42,0.00,,,0.00,Wunderground v.1.15,2013-02-23 18:25:00,
2013-02-23 11:29:00,29.4,9.1,22.24,South,181,8.0,21.0,42,0.00,,,0.00,Wunderground v.1.15,2013-02-23 18:29:00,
2013-02-23 11:31:00,29.4,9.6,22.25,WNW,300,7.0,21.0,43,0.00,,,0.00,Wunderground v.1.15,2013-02-23 18:31:00,
2013-02-23 11:33:00,29.4,9.6,22.24,West,264,7.0,7.0,43,0.00,,,0.00,Wunderground v.1.15,2013-02-23 18:33:00,
2013-02-23 11:35:00,29.3,10.1,22.24,SW,215,6.0,9.0,44,0.00,,,0.00,Wunderground v.1.15,2013-02-23 18:35:00,
2013-02-23 11:41:00,29.1,9.9,22.24,North,11,7.0,21.0,44,0.00,,,0.00,Wunderground v.1.15,2013-02-23 18:41:00,
2013-02-23 11:45:00,29.1,9.9,22.24,NNW,346,6.0,21.0,44,0.00,,,0.00,Wunderground v.1.15,2013-02-23 18:45:00,
2013-02-23 11:47:00,29.0,9.8,22.24,West,271,6.0,21.0,44,0.00,,,0.00,Wunderground v.1.15,2013-02-23 18:47:00,
2013-02-23 11:51:00,28.8,10.1,22.24,SW,229,7.0,21.0,45,0.00,,,0.00,Wunderground v.1.15,2013-02-23 18:51:00,
2013-02-23 11:53:00,28.6,9.9,22.23,WSW,249,8.0,21.0,45,0.00,,,0.00,Wunderground v.1.15,2013-02-23 18:53:00,
2013-02-23 11:59:00,28.0,9.9,22.23,SSW,210,11.0,21.0,46,0.00,,,0.00,Wunderground v.1.15,2013-02-23 18:59:00,
2013-02-23 12:03:00,27.7,10.1,22.22,WSW,248,13.0,33.0,47,0.00,,,0.00,Wunderground v.1.15,2013-02-23 19:03:00,
2013-02-23 12:05:00,27.6,10.4,22.22,SW,224,14.0,33.0,48,0.00,,,0.00,Wunderground v.1.15,2013-02-23 19:05:00,
2013-02-23 12:09:00,27.8,11.1,22.22,SW,225,15.0,33.0,49,0.00,,,0.00,Wunderground v.1.15,2013-02-23 19:09:00,
2013-02-23 12:15:00,28.9,11.2,22.21,WSW,242,16.0,21.0,47,0.00,,,0.00,Wunderground v.1.15,2013-02-23 19:15:00,
2013-02-23 12:19:00,29.7,10.9,22.20,SW,226,17.0,21.0,45,0.00,,,0.00,Wunderground v.1.15,2013-02-23 19:19:00,
2013-02-23 12:21:00,30.0,11.2,22.20,WSW,246,17.0,21.0,45,0.00,,,0.00,Wunderground v.1.15,2013-02-23 19:21:00,
2013-02-23 12:25:00,30.3,11.5,22.21,SSW,211,17.0,23.0,45,0.00,,,0.00,Wunderground v.1.15,2013-02-23 19:25:00,
2013-02-23 12:27:00,30.7,10.8,22.21,SSE,157,16.0,23.0,43,0.00,,,0.00,Wunderground v.1.15,2013-02-23 19:27:00,
2013-02-23 12:33:00,31.2,10.7,22.21,WSW,240,11.0,21.0,42,0.00,,,0.00,Wunderground v.1.15,2013-02-23 19:33:00,
2013-02-23 12:37:00,31.2,10.2,22.20,South,184,9.0,21.0,41,0.00,,,0.00,Wunderground v.1.15,2013-02-23 19:37:00,
2013-02-23 12:39:00,31.3,10.3,22.20,SW,231,9.0,21.0,41,0.00,,,0.00,Wunderground v.1.15,2013-02-23 19:39:00,
2013-02-23 12:45:00,31.7,10.7,22.20,SW,221,8.0,21.0,41,0.00,,,0.00,Wunderground v.1.15,2013-02-23 19:45:00,
2013-02-23 12:47:00,31.8,10.7,22.20,WSW,257,7.0,21.0,41,0.00,,,0.00,Wunderground v.1.15,2013-02-23 19:47:00,
2013-02-23 12:53:00,32.4,11.3,22.20,West,259,7.0,7.0,41,0.00,,,0.00,Wunderground v.1.15,2013-02-23 19:53:00,
2013-02-23 12:59:00,32.8,11.1,22.19,WSW,256,7.0,21.0,40,0.00,,,0.00,Wunderground v.1.15,2013-02-23 19:59:00,
2013-02-23 13:03:00,32.9,10.6,22.19,NW,314,6.0,21.0,39,0.00,,,0.00,Wunderground v.1.15,2013-02-23 20:03:00,
2013-02-23 13:05:00,33.1,10.8,22.19,West,274,6.0,21.0,39,0.00,,,0.00,Wunderground v.1.15,2013-02-23 20:05:00,
2013-02-23 13:09:00,33.2,10.9,22.18,WNW,283,6.0,21.0,39,0.00,,,0.00,Wunderground v.1.15,2013-02-23 20:09:00,
2013-02-23 13:15:00,33.5,11.7,22.18,SW,231,6.0,21.0,40,0.00,,,0.00,Wunderground v.1.15,2013-02-23 20:15:00,
2013-02-23 13:17:00,33.6,11.8,22.18,NW,322,6.0,21.0,40,0.00,,,0.00,Wunderground v.1.15,2013-02-23 20:17:00,
2013-02-23 13:19:00,33.7,11.9,22.18,WSW,256,6.0,21.0,40,0.00,,,0.00,Wunderground v.1.15,2013-02-23 20:19:00,
2013-02-23 13:25:00,34.3,11.9,22.17,WNW,294,5.0,21.0,39,0.00,,,0.00,Wunderground v.1.15,2013-02-23 20:25:00,
2013-02-23 13:29:00,34.5,12.1,22.17,WSW,239,5.0,21.0,39,0.00,,,0.00,Wunderground v.1.15,2013-02-23 20:29:00,
2013-02-23 13:31:00,34.6,12.1,22.17,NNW,347,5.0,21.0,39,0.00,,,0.00,Wunderground v.1.15,2013-02-23 20:31:00,
2013-02-23 13:37:00,34.4,12.0,22.17,SW,231,5.0,21.0,39,0.00,,,0.00,Wunderground v.1.15,2013-02-23 20:37:00,
2013-02-23 13:43:00,34.5,12.1,22.16,WSW,240,5.0,21.0,39,0.00,,,0.00,Wunderground v.1.15,2013-02-23 20:43:00,
2013-02-23 13:45:00,34.5,12.1,22.16,ENE,78,6.0,21.0,39,0.00,,,0.00,Wunderground v.1.15,2013-02-23 20:45:00,
2013-02-23 13:47:00,34.7,12.2,22.16,NNW,333,5.0,21.0,39,0.00,,,0.00,Wunderground v.1.15,2013-02-23 20:47:00,
2013-02-23 13:49:00,34.7,11.6,22.16,South,183,6.0,21.0,38,0.00,,,0.00,Wunderground v.1.15,2013-02-23 20:49:00,
2013-02-23 13:51:00,34.7,12.2,22.16,NW,309,6.0,21.0,39,0.00,,,0.00,Wunderground v.1.15,2013-02-23 20:51:00,
2013-02-23 13:57:00,35.4,12.9,22.16,West,281,6.0,14.0,39,0.00,,,0.00,Wunderground v.1.15,2013-02-23 20:57:00,
2013-02-23 14:03:00,35.9,12.7,22.16,WSW,252,7.0,7.0,38,0.00,,,0.00,Wunderground v.1.15,2013-02-23 21:03:00,
2013-02-23 14:07:00,36.3,13.1,22.15,WNW,300,8.0,21.0,38,0.00,,,0.00,Wunderground v.1.15,2013-02-23 21:07:00,
2013-02-23 14:09:00,36.1,12.3,22.15,SSE,153,9.0,21.0,37,0.00,,,0.00,Wunderground v.1.15,2013-02-23 21:09:00,
2013-02-23 14:13:00,36.3,13.1,22.16,NNW,344,7.0,21.0,38,0.00,,,0.00,Wunderground v.1.15,2013-02-23 21:13:00,
2013-02-23 14:17:00,36.5,13.3,22.16,NW,311,8.0,21.0,38,0.00,,,0.00,Wunderground v.1.15,2013-02-23 21:17:00,
2013-02-23 14:21:00,36.4,13.2,22.15,West,260,7.0,21.0,38,0.00,,,0.00,Wunderground v.1.15,2013-02-23 21:21:00,
2013-02-23 14:27:00,35.5,12.4,22.16,WNW,287,6.0,21.0,38,0.00,,,0.00,Wunderground v.1.15,2013-02-23 21:27:00,
2013-02-23 14:29:00,35.2,12.1,22.16,SW,215,6.0,21.0,38,0.00,,,0.00,Wunderground v.1.15,2013-02-23 21:29:00,
2013-02-23 14:31:00,34.8,12.3,22.16,WSW,240,6.0,21.0,39,0.00,,,0.00,Wunderground v.1.15,2013-02-23 21:31:00,
2013-02-23 14:33:00,34.6,12.1,22.16,ESE,103,6.0,21.0,39,0.00,,,0.00,Wunderground v.1.15,2013-02-23 21:33:00,
2013-02-23 14:39:00,34.1,12.3,22.17,WSW,242,7.0,21.0,40,0.00,,,0.00,Wunderground v.1.15,2013-02-23 21:39:00,
2013-02-23 14:41:00,34.0,12.7,22.17,WSW,240,6.0,21.0,41,0.00,,,0.00,Wunderground v.1.15,2013-02-23 21:41:00,
2013-02-23 14:45:00,33.6,12.9,22.18,WNW,283,6.0,21.0,42,0.00,,,0.00,Wunderground v.1.15,2013-02-23 21:45:00,
2013-02-23 14:47:00,33.4,13.3,22.18,WSW,255,6.0,21.0,43,0.00,,,0.00,Wunderground v.1.15,2013-02-23 21:47:00,
2013-02-23 14:51:00,33.3,13.7,22.17,West,278,7.0,21.0,44,0.00,,,0.00,Wunderground v.1.15,2013-02-23 21:51:00,
2013-02-23 14:53:00,33.3,13.7,22.17,ENE,65,7.0,7.0,44,0.00,,,0.00,Wunderground v.1.15,2013-02-23 21:53:00,
2013-02-23 14:55:00,33.4,14.3,22.17,WNW,287,7.0,21.0,45,0.00,,,0.00,Wunderground v.1.15,2013-02-23 21:55:00,
2013-02-23 14:59:00,33.6,15.0,22.17,WSW,250,6.0,21.0,46,0.00,,,0.00,Wunderground v.1.15,2013-02-23 21:59:00,
2013-02-23 15:01:00,33.8,14.7,22.17,WSW,256,5.0,21.0,45,0.00,,,0.00,Wunderground v.1.15,2013-02-23 22:01:00,
2013-02-23 15:07:00,34.9,15.2,22.17,WSW,252,5.0,21.0,44,0.00,,,0.00,Wunderground v.1.15,2013-02-23 22:07:00,
2013-02-23 15:09:00,35.3,15.0,22.17,ENE,68,5.0,21.0,43,0.00,,,0.00,Wunderground v.1.15,2013-02-23 22:09:00,
2013-02-23 15:13:00,35.7,14.3,22.17,West,273,5.0,21.0,41,0.00,,,0.00,Wunderground v.1.15,2013-02-23 22:13:00,
2013-02-23 15:17:00,36.1,14.1,22.17,NW,308,5.0,21.0,40,0.00,,,0.00,Wunderground v.1.15,2013-02-23 22:17:00,
2013-02-23 15:19:00,36.0,12.8,22.17,SSW,210,5.0,21.0,38,0.00,,,0.00,Wunderground v.1.15,2013-02-23 22:19:00,
2013-02-23 15:23:00,35.6,12.5,22.17,ESE,105,5.0,5.0,38,0.00,,,0.00,Wunderground v.1.15,2013-02-23 22:23:00,
2013-02-23 15:27:00,34.9,12.4,22.17,NNW,327,4.0,21.0,39,0.00,,,0.00,Wunderground v.1.15,2013-02-23 22:27:00,
2013-02-23 15:29:00,34.7,12.8,22.17,WSW,253,4.0,21.0,40,0.00,,,0.00,Wunderground v.1.15,2013-02-23 22:29:00,
2013-02-23 15:33:00,34.3,12.4,22.17,SSE,153,3.0,3.0,40,0.00,,,0.00,Wunderground v.1.15,2013-02-23 22:33:00,
2013-02-23 15:35:00,34.1,12.8,22.17,West,263,3.0,10.0,41,0.00,,,0.00,Wunderground v.1.15,2013-02-23 22:35:00,
2013-02-23 15:39:00,33.6,12.4,22.17,West,277,4.0,21.0,41,0.00,,,0.00,Wunderground v.1.15,2013-02-23 22:39:00,
2013-02-23 15:43:00,33.6,12.9,22.17,WSW,240,4.0,4.0,42,0.00,,,0.00,Wunderground v.1.15,2013-02-23 22:43:00,
2013-02-23 15:45:00,33.7,13.0,22.17,WSW,252,4.0,5.0,42,0.00,,,0.00,Wunderground v.1.15,2013-02-23 22:45:00,
2013-02-23 15:47:00,33.9,13.2,22.17,NNW,338,4.0,21.0,42,0.00,,,0.00,Wunderground v.1.15,2013-02-23 22:47:00,
2013-02-23 15:53:00,34.1,13.4,22.17,WSW,245,4.0,21.0,42,0.00,,,0.00,Wunderground v.1.15,2013-02-23 22:53:00,
2013-02-23 15:55:00,34.0,13.8,22.17,NNW,328,5.0,21.0,43,0.00,,,0.00,Wunderground v.1.15,2013-02-23 22:55:00,
2013-02-23 15:57:00,33.9,14.3,22.16,NNW,336,5.0,21.0,44,0.00,,,0.00,Wunderground v.1.15,2013-02-23 22:57:00,
2013-02-23 16:01:00,33.5,13.9,22.16,SSE,147,5.0,21.0,44,0.00,,,0.00,Wunderground v.1.15,2013-02-23 23:01:00,
2013-02-23 16:07:00,33.4,13.3,22.16,West,276,5.0,21.0,43,0.00,,,0.00,Wunderground v.1.15,2013-02-23 23:07:00,
2013-02-23 16:09:00,33.4,12.7,22.16,NW,307,4.0,21.0,42,0.00,,,0.00,Wunderground v.1.15,2013-02-23 23:09:00,
2013-02-23 16:13:00,33.4,12.2,22.16,SSW,210,4.0,4.0,41,0.00,,,0.00,Wunderground v.1.15,2013-02-23 23:13:00,
2013-02-23 16:15:00,33.4,12.2,22.16,North,5,5.0,8.0,41,0.00,,,0.00,Wunderground v.1.15,2013-02-23 23:15:00,
2013-02-23 16:21:00,32.8,12.7,22.16,NNW,344,5.0,21.0,43,0.00,,,0.00,Wunderground v.1.15,2013-02-23 23:21:00,
2013-02-23 16:23:00,32.7,13.2,22.16,NW,321,5.0,5.0,44,0.00,,,0.00,Wunderground v.1.15,2013-02-23 23:23:00,
2013-02-23 16:27:00,32.9,12.8,22.15,West,274,5.0,21.0,43,0.00,,,0.00,Wunderground v.1.15,2013-02-23 23:27:00,
2013-02-23 16:31:00,33.5,13.4,22.15,WNW,301,5.0,21.0,43,0.00,,,0.00,Wunderground v.1.15,2013-02-23 23:31:00,
2013-02-23 16:35:00,34.1,13.4,22.15,South,190,4.0,21.0,42,0.00,,,0.00,Wunderground v.1.15,2013-02-23 23:35:00,
2013-02-23 16:37:00,34.2,12.9,22.15,NE,53,3.0,21.0,41,0.00,,,0.00,Wunderground v.1.15,2013-02-23 23:37:00,
2013-02-23 16:39:00,34.2,12.9,22.15,West,274,3.0,21.0,41,0.00,,,0.00,Wunderground v.1.15,2013-02-23 23:39:00,
2013-02-23 16:41:00,34.2,13.5,22.15,WNW,299,2.0,21.0,42,0.00,,,0.00,Wunderground v.1.15,2013-02-23 23:41:00,
2013-02-23 16:47:00,34.1,13.4,22.16,West,273,1.0,21.0,42,0.00,,,0.00,Wunderground v.1.15,2013-02-23 23:47:00,
2013-02-23 16:49:00,33.7,13.0,22.16,WNW,293,1.0,21.0,42,0.00,,,0.00,Wunderground v.1.15,2013-02-23 23:49:00,
2013-02-23 16:53:00,33.3,13.2,22.16,NNW,336,1.0,21.0,43,0.00,,,0.00,Wunderground v.1.15,2013-02-23 23:53:00,
2013-02-23 16:59:00,32.7,13.2,22.16,NNE,30,1.0,21.0,44,0.00,,,0.00,Wunderground v.1.15,2013-02-23 23:59:00,
2013-02-23 17:01:00,32.5,13.0,22.16,SSE,148,1.0,21.0,44,0.00,,,0.00,Wunderground v.1.15,2013-02-24 00:01:00,
2013-02-23 17:03:00,32.4,12.9,22.16,West,269,1.0,21.0,44,0.00,,,0.00,Wunderground v.1.15,2013-02-24 00:03:00,
2013-02-23 17:07:00,32.1,13.1,22.17,SSW,194,1.0,21.0,45,0.00,,,0.00,Wunderground v.1.15,2013-02-24 00:07:00,
2013-02-23 17:09:00,32.0,13.0,22.17,WSW,253,1.0,21.0,45,0.00,,,0.00,Wunderground v.1.15,2013-02-24 00:09:00,
2013-02-23 17:11:00,31.9,13.4,22.17,WSW,243,1.0,21.0,46,0.00,,,0.00,Wunderground v.1.15,2013-02-24 00:11:00,
2013-02-23 17:13:00,31.8,13.3,22.17,WSW,256,1.0,1.0,46,0.00,,,0.00,Wunderground v.1.15,2013-02-24 00:13:00,
2013-02-23 17:15:00,31.6,13.7,22.17,WSW,254,1.0,21.0,47,0.00,,,0.00,Wunderground v.1.15,2013-02-24 00:15:00,
2013-02-23 17:17:00,31.4,13.5,22.17,SSE,153,1.0,21.0,47,0.00,,,0.00,Wunderground v.1.15,2013-02-24 00:17:00,
2013-02-23 17:21:00,30.9,13.5,22.17,WNW,290,1.0,21.0,48,0.00,,,0.00,Wunderground v.1.15,2013-02-24 00:21:00,
2013-02-23 17:25:00,30.7,13.3,22.17,NNW,330,1.0,21.0,48,0.00,,,0.00,Wunderground v.1.15,2013-02-24 00:25:00,
2013-02-23 17:27:00,30.8,13.9,22.17,ESE,119,1.0,21.0,49,0.00,,,0.00,Wunderground v.1.15,2013-02-24 00:27:00,
2013-02-23 17:33:00,30.5,13.6,22.17,WSW,247,1.0,1.0,49,0.00,,,0.00,Wunderground v.1.15,2013-02-24 00:33:00,
2013-02-23 17:37:00,30.0,13.6,22.17,SSE,148,0.0,21.0,50,0.00,,,0.00,Wunderground v.1.15,2013-02-24 00:37:00,
2013-02-23 17:39:00,29.7,13.3,22.18,SSE,148,0.0,21.0,50,0.00,,,0.00,Wunderground v.1.15,2013-02-24 00:39:00,
2013-02-23 17:45:00,29.1,13.6,22.18,ENE,70,1.0,21.0,52,0.00,,,0.00,Wunderground v.1.15,2013-02-24 00:45:00,
2013-02-23 17:49:00,28.9,14.3,22.17,NNW,348,1.0,21.0,54,0.00,,,0.00,Wunderground v.1.15,2013-02-24 00:49:00,
2013-02-23 17:55:00,28.5,14.4,22.18,NNW,328,2.0,21.0,55,0.00,,,0.00,Wunderground v.1.15,2013-02-24 00:55:00,
2013-02-23 17:57:00,28.3,14.2,22.17,North,11,3.0,21.0,55,0.00,,,0.00,Wunderground v.1.15,2013-02-24 00:57:00,
2013-02-23 17:59:00,28.2,14.1,22.18,NNW,332,3.0,21.0,55,0.00,,,0.00,Wunderground v.1.15,2013-02-24 00:59:00,
2013-02-23 18:01:00,28.1,14.0,22.18,NNW,340,3.0,21.0,55,0.00,,,0.00,Wunderground v.1.15,2013-02-24 01:01:00,
2013-02-23 18:05:00,28.1,13.6,22.18,NNW,338,3.0,21.0,54,0.00,,,0.00,Wunderground v.1.15,2013-02-24 01:05:00,
2013-02-23 18:09:00,28.0,13.9,22.18,NNE,25,2.0,21.0,55,0.00,,,0.00,Wunderground v.1.15,2013-02-24 01:09:00,
2013-02-23 18:15:00,27.8,13.7,22.18,East,88,1.0,21.0,55,0.00,,,0.00,Wunderground v.1.15,2013-02-24 01:15:00,
2013-02-23 18:17:00,27.7,13.6,22.18,ENE,78,1.0,21.0,55,0.00,,,0.00,Wunderground v.1.15,2013-02-24 01:17:00,
2013-02-23 18:21:00,27.5,13.8,22.18,NNW,348,1.0,21.0,56,0.00,,,0.00,Wunderground v.1.15,2013-02-24 01:21:00,
2013-02-23 18:25:00,27.4,13.7,22.19,North,9,2.0,21.0,56,0.00,,,0.00,Wunderground v.1.15,2013-02-24 01:25:00,
2013-02-23 18:29:00,27.2,13.6,22.18,NW,319,2.0,21.0,56,0.00,,,0.00,Wunderground v.1.15,2013-02-24 01:29:00,
2013-02-23 18:31:00,27.1,13.5,22.19,North,9,3.0,21.0,56,0.00,,,0.00,Wunderground v.1.15,2013-02-24 01:31:00,
2013-02-23 18:33:00,27.0,13.0,22.19,North,9,3.0,3.0,55,0.00,,,0.00,Wunderground v.1.15,2013-02-24 01:33:00,
2013-02-23 18:39:00,26.7,12.7,22.19,NNE,15,2.0,21.0,55,0.00,,,0.00,Wunderground v.1.15,2013-02-24 01:39:00,
2013-02-23 18:41:00,26.6,12.2,22.19,North,360,2.0,21.0,54,0.00,,,0.00,Wunderground v.1.15,2013-02-24 01:41:00,
2013-02-23 18:43:00,26.5,12.5,22.19,NW,322,2.0,21.0,55,0.00,,,0.00,Wunderground v.1.15,2013-02-24 01:43:00,
2013-02-23 18:47:00,26.3,12.3,22.20,NNW,333,2.0,21.0,55,0.00,,,0.00,Wunderground v.1.15,2013-02-24 01:47:00,
2013-02-23 18:49:00,26.3,12.3,22.20,NNW,327,2.0,21.0,55,0.00,,,0.00,Wunderground v.1.15,2013-02-24 01:49:00,
2013-02-23 18:53:00,26.2,12.6,22.20,NNW,340,2.0,21.0,56,0.00,,,0.00,Wunderground v.1.15,2013-02-24 01:53:00,
2013-02-23 18:55:00,26.1,12.1,22.20,NNW,345,2.0,21.0,55,0.00,,,0.00,Wunderground v.1.15,2013-02-24 01:55:00,
2013-02-23 19:01:00,26.1,12.5,22.21,NE,54,2.0,21.0,56,0.00,,,0.00,Wunderground v.1.15,2013-02-24 02:01:00,
2013-02-23 19:03:00,26.1,12.5,22.21,North,11,2.0,21.0,56,0.00,,,0.00,Wunderground v.1.15,2013-02-24 02:03:00,
2013-02-23 19:09:00,26.1,12.9,22.21,NNW,336,2.0,21.0,57,0.00,,,0.00,Wunderground v.1.15,2013-02-24 02:09:00,
2013-02-23 19:13:00,26.2,13.0,22.21,WNW,287,2.0,2.0,57,0.00,,,0.00,Wunderground v.1.15,2013-02-24 02:13:00,
2013-02-23 19:17:00,26.1,12.9,22.21,East,82,2.0,21.0,57,0.00,,,0.00,Wunderground v.1.15,2013-02-24 02:17:00,
2013-02-23 19:23:00,26.1,13.3,22.21,SW,232,1.0,1.0,58,0.00,,,0.00,Wunderground v.1.15,2013-02-24 02:23:00,
2013-02-23 19:29:00,26.1,13.3,22.21,NNE,18,1.0,21.0,58,0.00,,,0.00,Wunderground v.1.15,2013-02-24 02:29:00,
2013-02-23 19:33:00,26.2,13.4,22.20,NNW,345,1.0,21.0,58,0.00,,,0.00,Wunderground v.1.15,2013-02-24 02:33:00,
2013-02-23 19:35:00,26.2,13.0,22.20,North,359,2.0,21.0,57,0.00,,,0.00,Wunderground v.1.15,2013-02-24 02:35:00,
2013-02-23 19:37:00,26.2,13.0,22.21,NNW,331,2.0,21.0,57,0.00,,,0.00,Wunderground v.1.15,2013-02-24 02:37:00,
2013-02-23 19:39:00,26.2,13.0,22.21,North,6,2.0,21.0,57,0.00,,,0.00,Wunderground v.1.15,2013-02-24 02:39:00,
2013-02-23 19:41:00,26.2,13.4,22.21,North,356,2.0,21.0,58,0.00,,,0.00,Wunderground v.1.15,2013-02-24 02:41:00,
2013-02-23 19:45:00,26.2,13.0,22.21,ENE,60,1.0,21.0,57,0.00,,,0.00,Wunderground v.1.15,2013-02-24 02:45:00,
2013-02-23 19:47:00,26.1,13.3,22.21,NNW,344,2.0,21.0,58,0.00,,,0.00,Wunderground v.1.15,2013-02-24 02:47:00,
2013-02-23 19:53:00,26.0,13.2,22.21,NNE,33,1.0,21.0,58,0.00,,,0.00,Wunderground v.1.15,2013-02-24 02:53:00,
2013-02-23 19:59:00,25.9,13.5,22.22,ESE,117,0.0,21.0,59,0.00,,,0.00,Wunderground v.1.15,2013-02-24 02:59:00,
2013-02-23 20:01:00,25.9,13.5,22.22,ESE,117,1.0,21.0,59,0.00,,,0.00,Wunderground v.1.15,2013-02-24 03:01:00,
2013-02-23 20:07:00,25.6,13.6,22.22,SE,129,0.0,21.0,60,0.00,,,0.00,Wunderground v.1.15,2013-02-24 03:07:00,
2013-02-23 20:13:00,25.3,13.3,22.22,SE,129,0.0,21.0,60,0.00,,,0.00,Wunderground v.1.15,2013-02-24 03:13:00,
2013-02-23 20:15:00,25.2,13.2,22.22,SE,128,0.0,21.0,60,0.00,,,0.00,Wunderground v.1.15,2013-02-24 03:15:00,
2013-02-23 20:21:00,24.9,13.7,22.22,SE,129,0.0,21.0,62,0.00,,,0.00,Wunderground v.1.15,2013-02-24 03:21:00,
2013-02-23 20:23:00,24.8,13.2,22.22,SE,128,0.0,21.0,61,0.00,,,0.00,Wunderground v.1.15,2013-02-24 03:23:00,
2013-02-23 20:27:00,24.8,13.6,22.22,SE,129,0.0,21.0,62,0.00,,,0.00,Wunderground v.1.15,2013-02-24 03:27:00,
2013-02-23 20:29:00,24.9,13.7,22.22,SE,129,0.0,21.0,62,0.00,,,0.00,Wunderground v.1.15,2013-02-24 03:29:00,
2013-02-23 20:33:00,25.0,13.8,22.22,SE,127,0.0,21.0,62,0.00,,,0.00,Wunderground v.1.15,2013-02-24 03:33:00,
2013-02-23 20:35:00,25.0,13.8,22.22,SE,127,0.0,21.0,62,0.00,,,0.00,Wunderground v.1.15,2013-02-24 03:35:00,
2013-02-23 20:41:00,25.1,13.5,22.22,SE,127,0.0,21.0,61,0.00,,,0.00,Wunderground v.1.15,2013-02-24 03:41:00,
2013-02-23 20:43:00,25.1,13.9,22.22,SE,127,0.0,21.0,62,0.00,,,0.00,Wunderground v.1.15,2013-02-24 03:43:00,
2013-02-23 20:45:00,25.1,13.5,22.22,SE,127,0.0,21.0,61,0.00,,,0.00,Wunderground v.1.15,2013-02-24 03:45:00,
2013-02-23 20:49:00,25.0,14.2,22.22,SE,127,0.0,21.0,63,0.00,,,0.00,Wunderground v.1.15,2013-02-24 03:49:00,
2013-02-23 20:55:00,24.9,14.1,22.22,SE,127,0.0,21.0,63,0.00,,,0.00,Wunderground v.1.15,2013-02-24 03:55:00,
2013-02-23 20:57:00,24.9,14.1,22.22,SE,127,0.0,21.0,63,0.00,,,0.00,Wunderground v.1.15,2013-02-24 03:57:00,
2013-02-23 20:59:00,24.9,14.1,22.23,SE,127,0.0,21.0,63,0.00,,,0.00,Wunderground v.1.15,2013-02-24 03:59:00,
2013-02-23 21:03:00,24.8,14.3,22.23,SE,127,0.0,21.0,64,0.00,,,0.00,Wunderground v.1.15,2013-02-24 04:03:00,
2013-02-23 21:05:00,24.8,14.7,22.23,SE,127,0.0,21.0,65,0.00,,,0.00,Wunderground v.1.15,2013-02-24 04:05:00,
2013-02-23 21:09:00,24.9,14.8,22.23,SE,127,0.0,21.0,65,0.00,,,0.00,Wunderground v.1.15,2013-02-24 04:09:00,
2013-02-23 21:11:00,24.9,14.8,22.23,SE,127,0.0,21.0,65,0.00,,,0.00,Wunderground v.1.15,2013-02-24 04:11:00,
2013-02-23 21:15:00,25.0,14.5,22.23,SE,127,0.0,21.0,64,0.00,,,0.00,Wunderground v.1.15,2013-02-24 04:15:00,
2013-02-23 21:21:00,25.1,15.3,22.23,SE,129,0.0,21.0,66,0.00,,,0.00,Wunderground v.1.15,2013-02-24 04:21:00,
2013-02-23 21:23:00,25.1,16.0,22.23,ESE,117,0.0,21.0,68,0.00,,,0.00,Wunderground v.1.15,2013-02-24 04:23:00,
2013-02-23 21:29:00,24.9,17.5,22.23,ESE,115,1.0,21.0,73,0.00,,,0.00,Wunderground v.1.15,2013-02-24 04:29:00,
2013-02-23 21:31:00,24.9,17.8,22.23,ESE,117,1.0,21.0,74,0.00,,,0.00,Wunderground v.1.15,2013-02-24 04:31:00,
2013-02-23 21:37:00,24.7,18.5,22.23,ESE,117,0.0,21.0,77,0.00,,,0.00,Wunderground v.1.15,2013-02-24 04:37:00,
2013-02-23 21:39:00,24.6,18.7,22.23,NNE,12,0.0,21.0,78,0.00,,,0.00,Wunderground v.1.15,2013-02-24 04:39:00,
2013-02-23 21:43:00,24.4,18.8,22.23,ENE,72,0.0,21.0,79,0.00,,,0.00,Wunderground v.1.15,2013-02-24 04:43:00,
2013-02-23 21:45:00,24.2,18.6,22.23,NW,313,1.0,21.0,79,0.00,,,0.00,Wunderground v.1.15,2013-02-24 04:45:00,
2013-02-23 21:51:00,23.8,19.1,22.24,NNW,346,1.0,21.0,82,0.00,,,0.00,Wunderground v.1.15,2013-02-24 04:51:00,
2013-02-23 21:53:00,23.6,18.9,22.23,NE,49,1.0,21.0,82,0.00,,,0.00,Wunderground v.1.15,2013-02-24 04:53:00,
2013-02-23 21:55:00,23.5,18.8,22.23,NNW,343,1.0,21.0,82,0.00,,,0.00,Wunderground v.1.15,2013-02-24 04:55:00,
2013-02-23 21:59:00,23.2,19.1,22.23,North,6,1.0,21.0,84,0.00,,,0.00,Wunderground v.1.15,2013-02-24 04:59:00,
2013-02-23 22:01:00,23.2,19.1,22.24,NW,322,1.0,21.0,84,0.00,,,0.00,Wunderground v.1.15,2013-02-24 05:01:00,
2013-02-23 22:05:00,23.0,19.2,22.23,NE,43,1.0,21.0,85,0.00,,,0.00,Wunderground v.1.15,2013-02-24 05:05:00,
2013-02-23 22:07:00,22.9,19.1,22.23,North,350,1.0,21.0,85,0.00,,,0.00,Wunderground v.1.15,2013-02-24 05:07:00,
2013-02-23 22:13:00,22.6,19.0,22.23,ESE,108,1.0,1.0,86,0.00,,,0.00,Wunderground v.1.15,2013-02-24 05:13:00,
2013-02-23 22:15:00,22.5,18.9,22.23,NE,51,1.0,4.0,86,0.00,,,0.00,Wunderground v.1.15,2013-02-24 05:15:00,
2013-02-23 22:21:00,22.3,18.7,22.23,NE,41,1.0,21.0,86,0.00,,,0.00,Wunderground v.1.15,2013-02-24 05:21:00,
2013-02-23 22:25:00,22.1,18.8,22.23,ENE,67,1.0,21.0,87,0.00,,,0.00,Wunderground v.1.15,2013-02-24 05:25:00,
2013-02-23 22:27:00,22.0,18.7,22.23,NNE,19,1.0,21.0,87,0.00,,,0.00,Wunderground v.1.15,2013-02-24 05:27:00,
2013-02-23 22:31:00,21.9,18.6,22.23,NE,49,1.0,21.0,87,0.00,,,0.00,Wunderground v.1.15,2013-02-24 05:31:00,
2013-02-23 22:33:00,21.9,18.6,22.23,North,360,1.0,21.0,87,0.00,,,0.00,Wunderground v.1.15,2013-02-24 05:33:00,
2013-02-23 22:37:00,21.8,18.5,22.23,NNW,338,1.0,21.0,87,0.00,,,0.00,Wunderground v.1.15,2013-02-24 05:37:00,
2013-02-23 22:41:00,21.7,18.4,22.23,NNW,340,1.0,21.0,87,0.00,,,0.00,Wunderground v.1.15,2013-02-24 05:41:00,
2013-02-23 22:45:00,21.6,18.3,22.23,NNW,333,1.0,21.0,87,0.00,,,0.00,Wunderground v.1.15,2013-02-24 05:45:00,
2013-02-23 22:47:00,21.6,18.3,22.23,NNW,339,1.0,21.0,87,0.00,,,0.00,Wunderground v.1.15,2013-02-24 05:47:00,
2013-02-23 22:49:00,21.6,18.1,22.23,NNW,332,1.0,21.0,86,0.00,,,0.00,Wunderground v.1.15,2013-02-24 05:49:00,
2013-02-23 22:51:00,21.6,18.1,22.23,NNW,332,1.0,21.0,86,0.00,,,0.00,Wunderground v.1.15,2013-02-24 05:51:00,
2013-02-23 22:53:00,21.5,18.0,22.23,NNW,332,1.0,1.0,86,0.00,,,0.00,Wunderground v.1.15,2013-02-24 05:53:00,
2013-02-23 22:55:00,21.5,18.0,22.23,NNW,332,0.0,21.0,86,0.00,,,0.00,Wunderground v.1.15,2013-02-24 05:55:00,
2013-02-23 22:59:00,21.3,17.8,22.23,NNW,330,0.0,21.0,86,0.00,,,0.00,Wunderground v.1.15,2013-02-24 05:59:00,
2013-02-23 23:03:00,21.2,17.7,22.23,NNW,340,0.0,21.0,86,0.00,,,0.00,Wunderground v.1.15,2013-02-24 06:03:00,
2013-02-23 23:05:00,21.1,17.6,22.23,NNW,340,0.0,21.0,86,0.00,,,0.00,Wunderground v.1.15,2013-02-24 06:05:00,
2013-02-23 23:09:00,20.9,17.4,22.23,NW,324,0.0,21.0,86,0.00,,,0.00,Wunderground v.1.15,2013-02-24 06:09:00,
2013-02-23 23:13:00,20.7,17.2,22.23,WNW,300,0.0,21.0,86,0.00,,,0.00,Wunderground v.1.15,2013-02-24 06:13:00,
2013-02-23 23:15:00,20.7,17.2,22.23,NW,322,1.0,21.0,86,0.00,,,0.00,Wunderground v.1.15,2013-02-24 06:15:00,
2013-02-23 23:17:00,20.6,17.1,22.22,NW,325,1.0,21.0,86,0.00,,,0.00,Wunderground v.1.15,2013-02-24 06:17:00,
2013-02-23 23:21:00,20.5,17.0,22.23,NW,320,1.0,21.0,86,0.00,,,0.00,Wunderground v.1.15,2013-02-24 06:21:00,
2013-02-23 23:25:00,20.3,16.5,22.23,NW,321,0.0,21.0,85,0.00,,,0.00,Wunderground v.1.15,2013-02-24 06:25:00,
2013-02-23 23:27:00,20.2,16.7,22.23,NW,320,0.0,21.0,86,0.00,,,0.00,Wunderground v.1.15,2013-02-24 06:27:00,
2013-02-23 23:29:00,20.1,16.6,22.23,NW,321,0.0,21.0,86,0.00,,,0.00,Wunderground v.1.15,2013-02-24 06:29:00,
2013-02-23 23:33:00,20.0,16.5,22.23,NW,320,0.0,21.0,86,0.00,,,0.00,Wunderground v.1.15,2013-02-24 06:33:00,
2013-02-23 23:35:00,19.9,16.4,22.23,West,260,0.0,21.0,86,0.00,,,0.00,Wunderground v.1.15,2013-02-24 06:35:00,
2013-02-23 23:37:00,19.8,16.3,22.23,West,259,0.0,21.0,86,0.00,,,0.00,Wunderground v.1.15,2013-02-24 06:37:00,
2013-02-23 23:41:00,19.7,16.5,22.23,West,259,0.0,21.0,87,0.00,,,0.00,Wunderground v.1.15,2013-02-24 06:41:00,
2013-02-23 23:45:00,19.6,16.4,22.23,West,260,0.0,21.0,87,0.00,,,0.00,Wunderground v.1.15,2013-02-24 06:45:00,
2013-02-23 23:51:00,19.3,16.1,22.23,West,260,0.0,21.0,87,0.00,,,0.00,Wunderground v.1.15,2013-02-24 06:51:00,
2013-02-23 23:53:00,19.2,16.0,22.23,West,260,0.0,21.0,87,0.00,,,0.00,Wunderground v.1.15,2013-02-24 06:53:00,
2013-02-23 23:57:00,19.2,16.2,22.23,NNE,20,0.0,21.0,88,0.00,,,0.00,Wunderground v.1.15,2013-02-24 06:57:00,